Lapse_Rate
-0.9 -1.4 -1.3 -1.1 0.1 0.3 0.3 1.2 2.0 1.7 1.3 1.7 1.5 2.0 2.3 1.7 2.3 2.1 1.5 0.9 1.2 1.4 1.8 2.2 3.1 3.0 2.1 1.8 1.8 1.9 2.1 2.7 4.2 3.3 2.1 1.2 1.2 1.6 2.6 1.5 1.2 2.0 2.0
-0.0 0.0 -0.2 0.1 -0.3 -0.5 0.2 1.6 0.7 0.7 0.5 0.9 1.5 1.6 1.5 2.4 2.0 1.8 2.6 3.0 1.8 1.6 2.5 2.4 2.6 3.1 2.0 1.7 1.6 2.0 2.5 2.0 2.8 3.9 3.2 2.4 1.1 1.5 2.1 2.0 2.5 2.5 2.9
1.9 1.4 1.4 0.8 0.5 0.4 0.0 0.1 1.3 1.2 2.3 1.9 0.4 0.8 2.2 2.4 1.8 2.9 3.4 3.1 1.6 1.8 1.8 2.0 2.2 2.7 3.0 2.1 2.1 2.1 2.9 3.8 3.1 3.2 4.1 3.1 2.7 2.0 1.3 1.5 2.6 3.2 2.8
1.7 1.0 1.3 1.8 1.2 0.2 0.5 1.1 1.9 2.0 3.3 3.5 1.7 1.7 2.2 2.0 2.1 3.3 4.5 3.9 3.7 2.8 3.2 2.7 2.2 2.3 2.6 2.9 3.2 3.3 3.4 3.6 2.7 3.0 2.2 2.7 1.8 2.6 2.1 2.2 3.0 2.1 2.3
-0.4 -0.0 0.3 0.5 1.0 2.3 2.7 3.4 3.6 3.4 3.3 2.5 1.9 2.0 2.5 2.8 4.1 4.5 4.2 3.8 2.9 2.8 3.4 2.8 2.6 3.1 3.7 3.0 3.3 2.4 2.6 2.6 2.3 2.7 3.2 3.0 3.9 3.7 3.5 2.7 2.9 2.5 2.8
-0.2 -0.3 0.1 0.2 1.1 2.0 2.5 3.2 2.3 1.1 0.2 1.5 2.6 3.1 3.6 3.3 3.2 3.8 3.5 3.2 3.1 3.0 2.2 1.5 1.0 2.3 2.9 3.2 3.3 3.2 3.2 3.8 3.4 4.1 3.9 3.8 3.4 2.8 2.6 2.8 2.9 3.0 3.6
-0.0 0.7 1.3 2.0 2.3 2.3 2.0 0.3 -0.2 2.7 3.3 2.8 3.4 4.3 3.6 3.4 2.9 3.1 3.2 3.6 3.4 3.1 3.4 3.5 3.4 3.0 1.9 2.3 3.1 3.3 3.4 3.7 4.2 4.3 3.8 3.3 3.1 2.9 2.6 2.6 2.6 2.6 2.5
0.6 1.1 1.6 2.9 2.7 2.7 1.7 1.9 3.8 0.2 1.8 2.7 4.4 3.6 3.2 3.3 2.2 2.5 2.8 3.2 3.2 3.3 3.3 3.0 3.3 3.2 3.4 3.5 3.7 4.2 3.9 4.3 4.0 4.8 3.9 3.5 3.3 3.1 2.8 3.2 2.6 2.1 1.8
2.0 2.1 2.2 2.8 3.0 2.4 2.1 2.6 2.9 1.6 2.0 3.8 3.6 3.1 3.2 2.7 1.4 1.2 2.1 2.7 2.8 2.6 2.9 3.0 3.2 2.6 1.5 2.1 3.1 3.3 3.4 4.0 3.8 2.6 2.2 2.6 2.8 2.8 2.7 3.5 4.8 3.9 4.3
3.1 2.6 2.6 2.4 2.0 2.2 3.6 3.6 3.5 3.7 2.7 3.8 3.5 3.5 2.9 2.2 0.7 0.8 2.3 3.4 2.8 3.0 2.8 2.6 2.0 1.6 0.2 0.3 2.2 2.3 3.1 2.9 2.4 3.0 3.3 3.2 3.4 3.8 3.9 4.9 5.5 4.7 4.4
4.0 3.9 3.2 3.0 2.9 3.6 3.7 4.0 3.8 3.2 3.9 3.8 3.4 3.4 3.1 2.0 0.9 0.6 1.1 3.1 3.1 3.2 3.5 3.3 2.8 0.6 -0.4 -0.2 0.4 2.5 2.8 1.7 2.4 3.1 4.1 4.8 5.1 5.3 5.3 4.9 4.6 5.2 5.7
3.5 4.0 4.2 3.4 4.1 3.9 3.5 3.2 3.8 3.9 3.9 3.9 3.5 3.4 3.0 2.5 1.6 1.3 1.4 1.9 2.5 3.4 2.9 2.5 2.4 -0.4 -0.5 0.5 2.4 1.9 1.9 3.3 4.8 5.2 5.4 5.1 4.8 4.7 4.3 4.2 4.1 4.5 4.8
4.4 4.9 4.6 4.3 4.6 2.7 3.7 3.5 3.1 4.1 4.2 4.2 4.4 4.3 4.0 3.5 3.7 1.6 1.5 1.7 1.6 2.5 2.8 2.9 1.8 1.4 1.6 2.9 2.4 2.5 3.6 5.1 4.9 5.0 4.3 4.0 3.8 3.7 3.9 4.0 4.1 4.1 4.3
6.1 5.3 4.8 4.3 3.6 2.9 1.6 3.1 3.2 3.3 3.6 4.0 4.9 4.5 4.5 5.1 4.1 3.7 3.2 3.1 2.5 3.1 3.0 3.7 3.6 3.3 2.8 3.5 4.6 4.2 4.5 4.5 4.4 4.5 4.6 4.7 5.1 5.3 5.4 5.3 5.2 5.3 5.3
5.9 4.7 3.5 3.4 3.2 2.6 0.8 1.2 2.8 1.9 3.1 3.1 3.4 4.0 4.3 4.4 4.0 2.3 2.4 3.5 3.5 1.3 3.1 4.1 4.7 4.6 4.9 4.7 4.7 4.6 4.3 4.1 4.5 4.5 5.3 5.7 5.9 5.9 5.9 5.9 6.1 6.3 6.4
4.1 3.9 4.1 3.4 3.6 3.5 3.7 2.8 0.9 -0.2 -0.6 -1.1 -0.0 2.8 1.8 0.9 -2.4 -2.8 -2.8 -3.0 -2.3 -1.3 3.7 4.4 4.3 4.4 5.2 5.2 5.0 4.9 4.6 4.2 4.4 4.9 5.1 5.3 5.6 5.7 6.0 6.5 6.8 6.6 7.2
4.6 4.1 3.8 4.1 3.0 3.0 3.5 4.1 3.7 2.2 -1.1 -1.2 -0.8 -0.6 0.8 -1.4 -3.2 -3.3 -3.7 -3.1 -2.6 0.0 4.4 3.9 4.4 4.5 5.0 4.9 4.5 4.3 4.3 4.2 3.9 5.2 5.3 5.2 5.3 5.2 5.1 5.5 5.5 5.8 6.1
4.4 3.2 3.6 3.3 3.5 2.7 3.6 4.0 3.8 4.0 4.4 4.6 1.6 1.6 -2.1 -3.6 -3.7 -3.8 -3.3 -1.1 3.8 3.1 3.6 4.4 4.7 4.4 4.7 4.6 4.3 4.0 4.0 4.1 4.1 5.2 5.8 5.6 5.6 4.8 4.8 5.3 5.4 5.5 5.7
4.0 4.0 3.9 4.1 3.8 3.8 3.8 3.3 3.6 3.7 3.9 4.0 3.6 2.7 -0.1 -2.6 -3.6 -4.1 -2.7 4.4 5.1 5.1 4.6 4.1 4.0 4.4 4.4 4.2 4.0 3.7 3.5 4.3 4.4 5.0 5.5 5.7 5.7 5.1 4.6 4.7 4.8 4.4 4.8
4.0 4.2 3.9 3.9 3.8 3.3 3.1 3.4 3.4 3.4 3.5 3.7 4.3 4.5 2.7 1.8 3.3 3.7 3.2 3.9 4.2 4.2 4.3 4.2 4.2 4.3 4.3 3.7 3.8 3.7 3.8 3.8 4.3 4.6 4.7 5.1 5.3 5.3 5.0 4.5 4.3 4.0 4.2
3.7 4.1 3.6 3.1 3.2 3.2 3.3 3.4 3.6 3.9 4.1 4.1 4.3 4.2 2.5 5.2 5.6 5.4 5.4 5.1 4.8 4.5 4.1 3.8 4.0 4.1 3.6 3.5 3.3 3.5 3.5 3.7 4.0 4.2 4.4 4.4 4.5 4.2 4.3 4.2 4.6 4.9 5.0
2.7 3.0 3.3 3.4 3.3 3.5 3.7 3.6 3.5 3.6 3.7 4.3 4.1 3.8 0.8 4.8 5.3 5.2 4.7 4.7 4.9 4.2 3.9 3.6 4.0 4.0 3.8 3.3 2.9 3.5 3.9 4.1 4.3 3.8 3.9 4.0 3.9 3.4 3.0 2.8 2.5 2.5 4.3
3.6 3.5 3.2 3.1 3.5 2.9 3.6 3.5 4.2 4.3 3.9 3.7 3.8 4.3 4.1 4.4 4.4 4.6 4.6 4.6 4.2 4.3 3.6 3.4 3.8 3.6 3.2 2.7 2.7 3.3 3.8 3.8 4.0 3.9 4.0 4.0 4.1 4.0 3.3 2.9 2.9 2.5 2.6
4.2 4.0 4.2 3.9 3.7 3.9 3.8 4.0 3.9 2.4 3.7 4.4 4.4 3.8 4.1 4.4 4.7 4.6 4.6 4.6 4.2 4.1 3.5 3.4 3.3 3.6 3.5 3.1 2.3 2.1 2.4 2.8 3.0 3.6 4.0 4.2 4.5 4.0 3.4 3.3 3.3 3.3 3.1
3.8 4.0 4.1 4.1 4.0 4.0 4.1 4.0 3.9 3.9 4.1 3.8 4.5 4.0 4.7 4.6 4.7 4.6 4.5 4.2 3.9 3.9 3.8 3.4 2.3 2.4 3.0 3.3 2.2 2.4 2.9 2.1 1.6 2.7 3.2 3.9 4.2 4.3 4.2 3.6 3.3 3.3 3.4
3.6 3.9 3.5 3.2 3.4 3.4 3.4 3.7 3.8 3.8 4.0 4.2 4.1 4.2 4.4 4.7 4.9 4.9 4.7 4.4 4.5 3.9 3.6 4.5 3.9 2.6 2.5 2.4 2.6 2.8 2.9 2.3 0.9 -0.0 1.0 2.3 2.6 3.5 3.6 3.6 3.7 3.6 3.6
Wind_Speed
12 13 12 13 13 12 11 11 8 4 5 3 2 4 5 5 6 7 8 6 7 5 5 7 6 4 3 3 4 3 3 1 1 2 2 1 3 6 4 6 7 4 8
9 9 10 4 5 9 10 6 7 8 6 6 3 4 5 7 6 6 5 4 6 5 3 5 8 3 4 4 4 5 4 3 1 2 2 3 1 5 6 2 2 3 8
6 6 6 7 6 5 5 7 9 5 4 7 4 4 7 6 3 4 5 7 8 7 5 7 6 3 2 4 3 3 1 2 1 2 3 2 2 5 4 3 2 1 5
8 7 7 9 8 7 8 7 5 6 3 8 1 2 3 2 4 6 8 8 8 8 6 6 7 6 4 1 5 5 3 2 1 2 3 3 2 2 2 2 2 2 4
2 6 6 11 13 14 13 8 8 6 1 7 2 2 2 2 1 4 6 8 9 9 7 7 6 8 3 2 3 4 5 3 2 2 2 2 2 2 2 2 3 4 3
2 6 10 13 15 15 14 13 13 15 15 6 4 3 5 1 2 2 1 3 4 4 5 6 8 10 11 6 5 4 4 3 3 2 2 2 2 2 2 2 1 2 2
4 5 8 10 12 11 11 12 12 11 8 9 6 7 4 3 6 5 6 5 6 6 6 6 5 5 10 7 9 9 8 6 4 2 1 2 1 1 2 3 2 3 3
4 5 6 8 4 4 5 3 7 14 11 6 6 4 4 3 7 7 7 5 6 6 6 7 6 6 6 6 5 5 5 3 5 3 1 1 3 4 3 3 3 5 4
6 6 5 5 6 8 10 11 8 10 12 7 6 5 5 4 5 9 8 6 9 9 8 7 7 6 9 9 5 4 3 2 4 7 5 4 4 5 4 1 3 3 3
7 6 6 7 8 9 8 9 2 5 12 9 7 4 5 5 6 10 8 6 9 7 6 6 10 6 6 6 4 2 4 3 5 5 4 4 5 5 6 3 3 2 2
9 6 7 6 6 7 7 3 7 9 10 10 9 4 4 6 6 10 8 6 7 6 4 4 4 9 6 4 3 1 1 3 4 3 3 4 4 5 5 6 4 2 3
10 10 10 8 7 4 6 5 7 8 10 9 9 6 3 4 7 8 11 10 8 5 4 2 3 5 6 5 4 4 6 6 4 4 4 4 4 5 6 6 8 7 5
10 13 12 10 8 10 8 9 8 8 8 9 8 6 5 4 4 9 11 10 8 4 2 3 7 11 10 10 9 8 6 4 3 2 2 2 4 5 6 5 8 9 9
16 14 11 11 9 8 6 5 6 5 6 7 7 7 6 5 4 4 5 5 7 5 5 5 6 9 8 4 4 5 4 4 3 3 3 3 4 5 5 5 6 7 7
13 12 11 7 9 7 9 7 4 3 4 8 6 7 7 5 4 5 6 4 4 4 4 2 2 2 1 1 2 3 3 3 3 3 3 4 5 5 5 5 5 6 6
14 13 11 9 5 7 8 8 16 10 8 9 8 7 2 5 9 10 11 9 8 5 2 2 1 0 1 1 3 3 3 4 2 2 2 3 4 5 6 6 5 6 8
16 14 10 9 7 7 7 7 6 5 8 8 9 9 7 10 11 11 10 9 4 3 2 2 1 2 2 1 2 2 2 2 1 3 4 4 5 5 6 7 7 6 7
17 18 10 7 5 5 2 3 4 5 4 3 3 4 7 11 11 10 9 7 1 1 1 1 2 3 3 2 1 1 2 1 2 4 4 4 4 4 5 6 6 6 7
10 7 6 3 3 3 3 3 3 2 2 2 1 2 4 6 7 6 4 1 2 3 2 3 3 4 3 2 2 1 2 3 3 4 4 4 4 3 4 4 5 6 7
2 6 5 4 4 4 3 4 4 3 3 3 3 3 3 4 3 3 3 3 3 3 3 4 5 5 3 3 3 2 2 3 4 4 4 4 4 4 4 4 4 5 5
6 6 9 4 3 3 3 3 2 4 4 3 2 2 5 3 3 3 3 3 3 4 4 5 5 5 4 4 4 3 3 4 5 5 5 4 4 5 5 5 6 6 6
4 4 3 4 3 3 2 2 3 3 3 3 2 1 6 2 2 3 3 3 4 3 4 5 6 5 5 5 4 4 5 6 5 6 6 5 5 4 5 6 6 6 7
4 5 4 3 3 4 3 3 3 3 2 2 1 1 1 1 2 2 3 3 3 4 3 5 6 5 4 5 7 7 7 7 7 6 6 6 6 6 6 6 6 7 7
3 4 3 3 2 2 2 2 2 2 1 0 1 1 1 2 2 4 3 3 4 4 3 4 6 8 6 8 10 12 13 13 11 10 11 8 8 7 7 8 7 8 8
3 3 2 1 1 1 1 1 1 1 1 1 2 2 3 4 3 4 5 4 4 5 5 5 6 8 11 12 10 13 15 20 16 14 12 10 11 12 10 8 9 9 10
3 2 1 0 1 2 1 2 3 3 3 3 4 4 4 4 5 5 5 5 5 4 4 4 6 10 11 11 14 17 19 21 19 23 16 8 9 10 9 11 13 9 10
Wind_Direction
195 200 199 198 190 185 188 201 205 131 93 83 31 331 312 293 260 230 224 203 214 202 214 245 256 225 214 207 179 198 226 107 310 316 265 48 110 121 158 202 208 239 277
205 211 224 285 230 186 195 184 121 138 140 110 35 347 311 280 251 233 230 225 214 231 285 261 253 233 212 200 187 182 187 159 132 351 317 319 350 142 185 185 5 246 235
227 210 167 197 183 208 110 121 119 123 345 331 30 16 305 302 255 194 149 112 112 114 98 67 33 17 204 202 183 169 226 210 90 80 326 331 321 359 0 26 12 1 12
209 201 170 177 156 122 112 81 65 37 88 230 225 274 292 93 117 140 137 130 115 89 80 71 64 57 359 157 189 165 161 155 185 88 43 313 319 354 345 342 337 14 343
157 128 125 115 121 121 116 125 124 73 322 2 31 196 261 16 276 182 169 144 128 131 138 109 80 53 285 85 134 135 132 136 150 173 172 244 293 326 3 345 333 341 323
144 146 145 141 146 146 142 161 161 157 133 142 238 233 233 203 253 291 208 111 102 100 96 100 109 97 62 67 97 128 146 158 148 154 172 229 277 310 322 318 309 351 318
178 169 163 163 160 156 154 176 169 139 122 147 178 216 242 221 216 173 139 128 118 107 114 108 89 65 98 99 60 54 65 65 73 129 173 224 270 259 310 303 303 292 263
200 184 165 172 153 138 151 191 221 140 139 149 179 162 178 216 212 182 119 110 93 82 92 98 86 80 48 87 109 114 82 80 56 47 48 297 274 293 258 280 291 288 287
212 201 192 180 166 161 161 174 196 151 128 149 152 155 166 172 149 114 106 101 90 79 75 77 85 76 64 52 57 44 30 37 40 61 53 23 3 348 333 305 301 292 301
230 208 204 191 182 173 163 162 176 166 130 134 141 160 172 134 114 108 111 120 104 100 88 79 69 65 55 63 102 76 346 346 13 8 24 54 42 43 70 46 355 349 312
202 189 185 172 162 160 143 140 147 122 124 137 134 142 136 127 114 113 118 119 112 97 79 46 21 11 11 23 113 126 114 37 13 42 59 35 26 26 17 8 13 346 340
184 189 181 168 161 153 159 126 117 121 133 139 127 121 110 102 101 105 95 92 90 90 75 59 12 24 76 114 115 79 89 101 86 55 28 13 8 5 350 340 347 344 323
184 190 184 175 185 152 149 139 127 141 136 142 136 137 139 102 104 89 95 105 106 100 101 79 67 54 64 75 74 84 82 67 48 28 37 27 354 331 333 340 338 340 320
207 191 176 159 146 116 103 110 117 125 131 143 147 149 144 133 125 101 94 90 89 90 73 67 66 70 54 54 70 70 73 68 61 53 34 358 341 350 343 352 333 337 332
167 142 108 98 78 91 71 61 62 58 149 151 157 162 151 153 175 156 140 134 104 77 95 92 93 94 134 63 59 55 52 55 61 51 18 355 340 337 330 338 329 325 320
95 87 83 81 79 79 96 77 47 38 60 80 99 141 82 116 127 109 103 101 102 151 101 97 103 12 277 348 8 9 22 35 44 21 351 334 323 321 320 322 330 327 323
91 75 91 95 78 73 79 110 111 54 67 77 101 127 136 144 126 129 127 124 150 172 141 164 175 244 258 274 338 355 349 4 6 338 330 331 327 327 331 332 333 329 326
72 68 70 55 53 63 52 154 141 143 149 150 99 85 124 140 145 153 155 171 156 70 80 220 226 228 223 237 262 299 329 310 353 321 316 318 320 329 337 328 329 328 329
92 97 99 115 182 175 168 131 116 145 157 159 142 114 153 124 124 135 162 262 242 264 253 222 225 220 226 247 259 331 305 318 319 309 304 303 305 302 309 308 313 314 315
108 130 128 155 166 159 133 143 156 176 177 168 163 171 153 143 190 207 219 222 236 240 242 230 218 220 228 230 235 257 290 313 310 287 286 286 280 271 285 284 289 299 304
153 156 154 140 130 139 161 168 176 188 179 175 201 207 190 190 176 199 219 228 245 235 225 220 212 221 218 213 209 221 242 256 255 265 268 265 271 276 290 291 294 295 294
100 110 115 124 134 137 139 147 144 145 135 140 164 152 175 199 209 219 220 258 259 245 221 209 212 213 215 211 198 211 227 237 241 239 244 249 255 261 271 280 284 288 292
110 112 104 106 119 137 124 119 117 111 114 111 119 152 171 173 238 236 252 257 256 251 224 208 213 225 217 218 212 214 223 230 228 223 229 230 235 241 251 259 267 274 277
91 87 109 132 137 106 96 105 114 102 90 40 18 343 293 263 250 262 263 276 276 286 265 239 229 227 228 221 218 219 226 233 229 231 229 231 235 230 243 254 254 259 270
105 106 109 131 135 83 57 69 124 219 249 266 271 241 239 249 263 264 264 261 246 261 266 246 239 253 256 253 237 230 237 239 235 237 235 238 245 245 242 247 255 265 267
157 155 132 119 161 199 227 247 249 249 258 260 261 271 281 285 274 269 269 274 279 270 272 277 266 253 256 251 252 254 253 250 248 247 228 227 232 238 238 248 254 254 259